Regional Weather Roundup
Issued by NWS Northern Indiana

Home | Current Version | Previous Version | Graphics & Text | Print | Product List | Glossary On
Versions: 1 2 3 4 5 6 7 8 9 10 11 12 13 14 15 16 17 18 19 20 21 22 23 24 25 26 27 28 29 30 31 32 33 34 35 36 37 38 39 40 41 42 43 44 45 46 47 48 49 50
000
ASUS43 KIWX 280200
RWRIWX

KIWX WEATHER ROUNDUP
NATIONAL WEATHER SERVICE NORTHERN INDIANA
900 PM EST FRI FEB 27 2015

NOTE: "FAIR" INDICATES FEW OR NO CLOUDS BELOW 12,000 FEET WITH NO
SIGNIFICANT WEATHER AND/OR OBSTRUCTIONS TO VISIBILITY.

* THESE STATIONS ARE NOT UNDER NWS QUALITY CONTROL. THEY ALSO MAY NOT
  REPORT WEATHER SUCH AS PRECIPITATION OR FOG.

INZ001>027-280300-
NORTHERN INDIANA

CITY           SKY/WX    TMP DP  RH WIND       PRES   REMARKS
GARY*          CLEAR     10  -6  48 W8        30.66R WCI  -1
SOUTH BEND     CLEAR      8  -4  58 SW7       30.63S WCI  -3
ELKHART*       CLEAR      9  -6  52 W5        30.64R WCI   0
GOSHEN         CLEAR      5  -4  66 S5        30.62R WCI  -4
MONTICELLO*    PTCLDY     4  -3  72 CALM      30.67R
ANGOLA*        CLEAR      1  -6  71 CALM      30.59S
FORT WAYNE     PTCLDY     7   0  73 CALM      30.64R
PERU/GRISSOM   CLEAR      5  -4  68 W5        30.65R WCI  -4

$$
INZ028>050-280300-
CENTRAL INDIANA

CITY           SKY/WX    TMP DP  RH WIND       PRES   REMARKS
LAFAYETTE      PTCLDY     5  -4  66 CALM      30.67R
KOKOMO*        PTCLDY     9  -2  61 W6        30.66R WCI  -1
MUNCIE*        PTCLDY     8   0  69 SW3       30.64R
INDIANAPOLIS   CLOUDY    13  -1  54 N3        30.63R

$$
MIZ043>046-050>051-056>058-064>065-071>073-077>080-280300-
SOUTHWEST LOWER MICHIGAN

CITY           SKY/WX    TMP DP  RH WIND       PRES   REMARKS
BATTLE CREEK   CLEAR      8  -4  58 SW6       30.59R WCI  -2
BENTON HARBOR  CLEAR      9  -1  64 S6        30.63R WCI  -1
COLDWATER*     CLEAR      8  -2  64 SW5       30.60S WCI  -1
HILLSDALE*     CLEAR     10  -2  59 SW3       30.57S
HOLLAND        CLEAR      8  -1  66 SW5       30.61R WCI   0
GRAND RAPIDS   CLEAR     11   1  64 SW9       30.59R WCI  -2
KALAMAZOO      CLEAR      8  -3  61 SW5       30.60R WCI   0
STURGIS*       CLEAR      9   0  66 CALM      30.60S
THREE RIVERS*  FAIR      11  -1  58 SW3       30.62S

$$
OHZ001>008-015>018-024>025-280300-
NORTHWEST OHIO

CITY           SKY/WX    TMP DP  RH WIND       PRES   REMARKS
DEFIANCE       CLEAR      5  -4  66 S3        30.65R
FINDLAY        CLEAR      1  -8  66 S6        30.63R WCI -10
TOLEDO EXPRESS FAIR       7  -4  60 S7        30.63R WCI  -5
TOLEDO METCALF CLEAR      8  -4  58 SW6       30.65R WCI  -2
LIMA           PTCLDY     9  -5  53 S7        30.63R WCI  -2

$$
AND FOR LAKE MICHIGAN COASTAL AND OPEN LAKE BUOY OBSERVATIONS

STATION/POSITION TEMP    WIND        PRES    VSBY  WAVE
                 AIR SEA DIR/SP/G                  HT/PER
                 (F)     (DEG/KT/KT) (MB)    (MI)  (FT/S)
CALUMET HARBOR    11     230/  6/  8 1036.4R
MICHIGAN CITY     11     190/ 10/ 11   N/A
SAINT JOSEPH      12     160/  4/ 10 1037.3R

$$
&&


USA.gov is the U.S. government's official web portal to all federal, state and local government web resources and services.